Flag for United Kingdom Weather past 2 weeks in Walsall, England, United Kingdom

Now
45 °F

Haze.


Feels Like: 43 °F
Forecast: 38 / 60 °F
Wind: 3 mph from Northwest

Location: Birmingham / Airport

Current Time: Apr 21, 2015 at 3:07:15 AM

Latest Report: Apr 21, 2015 at 2:20 AM


Visibility: 3 mi

Pressure: 30.54 "Hg

Humidity: 76%

Dew point: 37 °F

Location of WalsallLocation

Historic Weather in Walsall — Graph

°F

Walsall temperature yesterday

Maximum temperature yesterday: 61 °F (at 4:50 PM)
Minimum temperature yesterday: 36 °F (at 2:20 AM)
Average temperature yesterday: 48 °F

Past Weeks' High & Low Weather Summary

 TemperatureHumidityPressure
High66 °F (Apr 10, 3:20 PM)100% (Apr 6, 1:50 AM)30.63 "Hg (Apr 6, 1:50 AM)
Low30 °F (Apr 13, 6:50 AM)26% (Apr 15, 1:20 PM)29.77 "Hg (Apr 11, 5:50 AM)
Average50 °F70%30.26 "Hg
* Reported Apr 6 1:20 AM — Apr 21 1:50 AM, Walsall, Weather by CustomWeather, © 2015

Note: Actual official high and low records may vary slightly from our data, if they occured in-between our weather recording intervals... More about our weather records

Advertising

Walsall weather history for previous 24 hours

 ConditionsComfort  
Time TempWeatherWind HumidityBarometerVisibility
1:50 AM
Tue, Apr 21
45 °FQuite cool.2 mph76%30.54 "Hg4 mi
1:20 AM45 °FClear.5 mph81%30.54 "Hg10 mi
12:50 AM46 °FClear.3 mph76%30.54 "Hg10 mi
12:20 AM46 °FClear.3 mph76%30.51 "Hg10 mi
11:50 PM
Mon, Apr 20
48 °FClear.3 mph76%30.51 "Hg10 mi
11:20 PM48 °FClear.2 mph76%30.51 "Hg10 mi
10:50 PM50 °FClear.3 mph71%30.51 "Hg10 mi
10:20 PM52 °FClear.6 mph67%30.51 "Hg10 mi
9:50 PM52 °FPassing clouds.5 mph67%30.48 "HgN/A
9:20 PM54 °FClear.3 mph63%30.48 "Hg10 mi
8:50 PM54 °FSunny.5 mph63%30.48 "Hg10 mi
8:20 PM54 °FSunny.6 mph63%30.48 "Hg10 mi
7:50 PM57 °FSunny.6 mph55%30.45 "Hg10 mi
7:20 PM57 °FPassing clouds.6 mph55%30.45 "HgN/A
6:50 PM59 °FPassing clouds.7 mph55%30.45 "HgN/A
6:20 PM59 °FPassing clouds.7 mph55%30.45 "HgN/A
5:50 PM59 °FPassing clouds.8 mph55%30.42 "HgN/A
5:20 PM59 °FPassing clouds.7 mph51%30.42 "HgN/A
4:50 PM61 °FPassing clouds.7 mph48%30.45 "HgN/A
4:20 PM59 °FPassing clouds.6 mph51%30.45 "HgN/A
3:50 PM59 °FPassing clouds.7 mph48%30.45 "HgN/A
3:20 PM59 °FPassing clouds.8 mph51%30.45 "HgN/A
2:50 PM59 °FPassing clouds.7 mph48%30.45 "HgN/A
2:20 PM57 °FPassing clouds.6 mph55%30.45 "HgN/A
1:50 PM55 °FPassing clouds.6 mph59%30.45 "HgN/A
1:20 PM55 °FPassing clouds.7 mph55%30.45 "HgN/A
12:50 PM54 °FPassing clouds.7 mph58%30.45 "HgN/A
12:20 PM54 °FPassing clouds.8 mph58%30.45 "HgN/A
11:50 AM52 °FPassing clouds.8 mph62%30.45 "HgN/A
11:20 AM50 °FPassing clouds.7 mph71%30.45 "HgN/A
10:50 AM48 °FScattered clouds.6 mph76%30.45 "Hg4 mi
10:20 AM46 °FPartly sunny.7 mph82%30.45 "Hg4 mi
9:50 AM46 °FPartly sunny.6 mph82%30.42 "Hg5 mi
9:20 AM45 °FBroken clouds.6 mph87%30.42 "Hg4 mi
8:50 AM41 °FPartly sunny.6 mph93%30.42 "Hg1 mi
8:20 AM41 °FPartly sunny.5 mph93%30.42 "Hg1 mi
7:50 AM39 °FScattered clouds.3 mph93%30.42 "Hg2 mi
7:20 AM37 °FHaze.5 mph93%30.39 "Hg2 mi
6:50 AM36 °FHaze.2 mph93%30.39 "Hg2 mi
6:20 AM36 °FHaze.2 mph93%30.36 "Hg2 mi
5:50 AM36 °FHaze.3 mph93%30.36 "Hg2 mi
5:20 AM36 °FClear.3 mph93%30.36 "Hg6 mi
4:50 AM37 °FClear.3 mph87%30.36 "Hg10 mi
4:20 AM37 °FClear.2 mph87%30.33 "Hg10 mi
3:50 AM36 °FClear.No wind93%30.33 "Hg10 mi
3:20 AM37 °FClear.5 mph87%30.33 "Hg10 mi
Weather by CustomWeather, © 2015

See weather overviewHow to use our weather pages